Zurück zum Katalog

STARLINK-5919

AktivKommunikationVLEO
NORAD 55927·PAYLOAD·🇺🇸 United States

Gestartet Mar 17, 2023 von Vandenberg Space Force Base

Loading…

Nächste Überflüge (nächste 24 Stunden)

TLE

AktuellSource: CelesTrak SupGP

Epoche: Sep 15, 2026, 02:35 UTC

1 55927C 23037P   26258.10812500 -.00010143  00000+0 -85014-3 0  2582
2 55927  70.0021 186.7402 0002551 273.9799  75.0232 14.98332576    15

Verfolge STARLINK-5919 in Echtzeit mit AllMySat

Download on the App Store